Air Resources Laboratory banner image
Air Resources Laboratory web site National Oceanic and Atmospheric Administration (NOAA)

ks roundup


Office: GLD

ASUS43 KGLD 231808
RWRGLD

GOODLAND FORECAST AREA HOURLY WEATHER ROUNDUP
NATIONAL WEATHER SERVICE GOODLAND KS
1200 PM MDT WED MAY 23 2018

...OFFICIAL OBSERVATIONS...

CITY           SKY/WX    TMP DP  RH WIND       PRES   REMARKS
GOODLAND KS    PTSUNNY   78  48  34 S21G32    29.99F
HILL CITY KS   PTSUNNY   83  54  36 S16G24    29.99S
IMPERIAL NEB   CLOUDY    79  53  40 S15G26    29.98R
MCCOOK NEB     PTSUNNY   80  61  52 S12       29.97F
AKRON CO       MOSUNNY   71  54  54 SW12G18   30.00F
BURLINGTON CO  PTSUNNY   79  52  38 S24G38    30.02F
LIMON CO       MOSUNNY   75  48  38 S16G31    30.04F
$$

...UNOFFICIAL OBSERVATIONS...

CITY           SKY/WX    TMP DP  RH WIND       PRES   REMARKS
COLBY KS       CLOUDY    82  55  39 S10       30.02S
NORTON KS      SUNNY     88  55  33 S21       29.98
SHARON SPRINGS   N/A     80  55  41 MISG        N/A
KIT CARSON CO    N/A     78  51  38 MISG        N/A
YUMA CO        FAIR      73  32  21 S17       29.99F
$$




Office: TOP ASUS43 KTOP 231808 RWRKS WEATHER ROUNDUP FOR KANSAS NATIONAL WEATHER SERVICE GOODLAND KS 100 PM CDT WED MAY 23 2018 NOTE: "FAIR" INDICATES FEW OR NO CLOUDS BELOW 12,000 FEET WITH NO SIGNIFICANT WEATHER AND/OR OBSTRUCTIONS TO VISIBILITY. KSZ001>006-013>018-027>032-041>047-231900- NORTHWEST KANSAS CITY SKY/WX TMP DP RH WIND PRES REMARKS GOODLAND PTSUNNY 78 48 34 S21G32 29.99F 6HR MIN TEMP: 64; 6HR MAX TEMP: 80; HAYS CLOUDY 82 63 52 SE17 30.00F HILL CITY PTSUNNY 83 54 36 S16G24 29.99S 6HR MIN TEMP: 67; 6HR MAX TEMP: 84; RUSSELL CLOUDY 83 67 58 SE15 30.00F 6HR MIN TEMP: 68; 6HR MAX TEMP: 83; $$ KSZ061>065-074>080-084>089-231900- SOUTHWEST KANSAS CITY SKY/WX TMP DP RH WIND PRES REMARKS DODGE CITY CLOUDY 80 63 55 S23G29 30.04S 6HR MIN TEMP: 66; 6HR MAX TEMP: 81; ELKHART MOSUNNY 77 64 65 S18G24 30.08F GARDEN CITY MOSUNNY 82 58 43 SW24G30 30.03R 6HR MIN TEMP: 62; 6HR MAX TEMP: 82; GREAT BEND CLOUDY 83 65 54 S18 30.02F LIBERAL CLOUDY 79 60 52 S18 30.07S PRATT CLOUDY 84 63 49 S18G24 30.03F 6HR MIN TEMP: 66; 6HR MAX TEMP: 84; $$ KSZ066>073-081>083-090>101-231900- SOUTHEAST KANSAS CITY SKY/WX TMP DP RH WIND PRES REMARKS CHANUTE SUNNY 84 69 60 S6 30.09F 6HR MIN TEMP: 69; 6HR MAX TEMP: 85; COFFEYVILLE LGT RAIN 84 69 60 CALM 30.06F 6HR MIN TEMP: 66; 6HR MAX TEMP: 85; HUTCHINSON PTSUNNY 85 67 54 S14 30.03F 6HR MIN TEMP: 66; 6HR MAX TEMP: 87; MEDICINE LODGE N/A 85 67 54 SE14G24 30.02F NEWTON MOSUNNY 85 65 51 S14G21 30.07F PARSONS MOSUNNY 84 71 65 CALM 30.09F 6HR MIN TEMP: 68; 6HR MAX TEMP: 84; WICHITA INTL PTSUNNY 85 68 56 S13G20 30.05F 6HR MIN TEMP: 69; 6HR MAX TEMP: 85; WICHITA JABRA MOSUNNY 84 66 54 S13 30.06F 6HR MIN TEMP: 67; 6HR MAX TEMP: 85; WICHITA MCCONL MOSUNNY 85 65 51 SW13 30.06F WINFIELD CLOUDY 84 69 60 S6 30.07F 6HR MIN TEMP: 68; 6HR MAX TEMP: 84; $$ KSZ007>012-019>026-033>040-048>060-102>105-231900- NORTHEAST KANSAS CITY SKY/WX TMP DP RH WIND PRES REMARKS CONCORDIA SUNNY 86 64 47 S14 30.02F 6HR MIN TEMP: 68; 6HR MAX TEMP: 87; EMPORIA MOSUNNY 80 67 64 S9 30.09S 6HR MIN TEMP: 65; 6HR MAX TEMP: 84; LAWRENCE MOSUNNY 88 67 49 S8 30.08F 6HR MIN TEMP: 67; 6HR MAX TEMP: 88; MANHATTAN MOSUNNY 89 66 46 S9G20 30.04F 6HR MIN TEMP: 69; 6HR MAX TEMP: 89; MARYSVILLE MOSUNNY 86 68 54 S9G22 30.05F OLATHE IND MOSUNNY 86 66 51 S8 30.10F 6HR MIN TEMP: 68; 6HR MAX TEMP: 86; OLATHE EXE MOSUNNY 84 68 58 S10 30.10F 6HR MIN TEMP: 66; 6HR MAX TEMP: 84; SALINA MOSUNNY 89 65 44 S16 30.03F 6HR MIN TEMP: 69; 6HR MAX TEMP: 89; TOPEKA BILLARD MOSUNNY 86 68 54 S8 30.07F 6HR MIN TEMP: 66; 6HR MAX TEMP: 87; TOPEKA FORBES MOSUNNY 88 68 51 S9G18 30.08F 6HR MIN TEMP: 67; 6HR MAX TEMP: 88; $$
Office: EAX ASUS43 KEAX 231810 RWREAX WEATHER ROUNDUP FOR EASTERN KANSAS AND NORTHWEST MISSOURI NATIONAL WEATHER SERVICE KANSAS CITY/PLEASANT HILL MO 100 PM CDT WED MAY 23 2018 KSZ040-057-103>105-MOZ028-029-037-043-231900- ...KANSAS CITY METROPOLITAN AREA... CITY SKY/WX TMP DP RH WIND PRES REMARKS K.C. INTL MOSUNNY 86 65 49 S8 30.10F 6HR MIN TEMP: 68; 6HR MAX TEMP: 87; K.C. DOWNTOWN MOSUNNY 88 65 46 SE10 30.08F HX 90 6HR MIN TEMP: 70; 6HR MAX TEMP: 88; LEES SUMMIT SUNNY 85 65 51 S8G20 30.11F 6HR MIN TEMP: 68; 6HR MAX TEMP: 86; OLATHE - IXD MOSUNNY 86 66 51 S8 30.10F 6HR MIN TEMP: 68; 6HR MAX TEMP: 86; OLATHE - OJC MOSUNNY 84 68 58 S10 30.10F 6HR MIN TEMP: 66; 6HR MAX TEMP: 84; LAWRENCE MOSUNNY 88 67 49 S8 30.08F HX 91 $$ MOZ001>008-011>017-020>025-030>033-038>040-044>046-053-054-231900- ...NORTHERN AND CENTRAL MISSOURI... CITY SKY/WX TMP DP RH WIND PRES REMARKS ST. JOSEPH MOSUNNY 89 64 43 SE13 30.07F HX 90 6HR MIN TEMP: 67; 6HR MAX TEMP: 89; MOSBY PTCLDY 86 63 45 S7 30.10S WARRENSBURG SUNNY 84 66 54 SE8 30.10F WHITEMAN AFB MOSUNNY 83 68 59 SE5 30.07F 6HR MIN TEMP: 66; 6HR MAX TEMP: 85; CLINTON MOSUNNY 84 70 61 S9 30.11F SEDALIA MOSUNNY 85 70 60 S7 30.13F 6HR MIN TEMP: 69; 6HR MAX TEMP: 86; WARSAW NOT AVBL CHILLICOTHE N/A 87 67 51 MISG 30.11F HX 90 6HR MIN TEMP: 66; 6HR MAX TEMP: 88; KIRKSVILLE PTSUNNY 83 68 60 VRB6 30.15F 6HR MIN TEMP: 66; 6HR MAX TEMP: 84; $$ MOZ041-047>049-056>058-063>065-088>090-097-231900- ...EASTERN AND SOUTHERN MISSOURI... CITY SKY/WX TMP DP RH WIND PRES REMARKS ST. LOUIS INTL MOSUNNY 83 64 52 SE8 30.16F 6HR MIN TEMP: 68; 6HR MAX TEMP: 83; SPIRIT OF STL MOSUNNY 84 65 52 E7 30.14F COLUMBIA SUNNY 85 69 58 VRB6 30.13F JEFFERSON CITY MOSUNNY 84 67 56 CALM 30.11F ROLLA MOSUNNY 82 67 60 E5 30.15F OSAGE BEACH MOSUNNY 85 70 60 SE6 30.12F SPRINGFIELD MOSUNNY 83 67 58 S7 30.11F BRANSON PTSUNNY 82 66 57 E7 30.13F JOPLIN MOSUNNY 84 67 56 E3 30.10F WEST PLAINS MOSUNNY 83 69 62 E7 30.14F $$ IAZ060-094-KSZ022-034>040-054-083-096-NEZ052-066-093-231900- ...KANSAS...SOUTHEAST NEBRASKA AND IOWA... CITY SKY/WX TMP DP RH WIND PRES REMARKS TOPEKA MOSUNNY 86 68 54 S8 30.07F 6HR MIN TEMP: 66; 6HR MAX TEMP: 87; MANHATTAN MOSUNNY 89 66 46 S9G20 30.04F HX 91 EMPORIA MOSUNNY 80 67 64 S9 30.09S CHANUTE SUNNY 84 69 60 S6 30.09F WICHITA PTSUNNY 85 68 56 S13G20 30.05F OMAHA MOSUNNY 87 63 44 S14 30.05F LINCOLN MOSUNNY 88 63 43 S16G29 30.03F FALLS CITY MOSUNNY 87 62 43 S12 30.05F LAMONI MOSUNNY 83 66 56 SE8 30.12F DES MOINES MOSUNNY 83 68 60 SE6 30.11F $$